Location: Dehesa de la Cepeda
(40.6574°N, 4.3013°W)
Time: 19:50:03
(UTC+00:00)

Vanguard 3 - Pass Details

Date: 01 August 2021
Orbit: 510 x 3260 km, 33.3° (Epoch: 22 September)

Event Time Altitude Azimuth Distance (km) Brightness Sun altitude
Rises 20:08:58 0° 262° (W) 6,078 12.5 -7.0°
Reaches altitude 10° 20:12:31 10° 260° (W) 5,349 12.1 -7.6°
Maximum altitude 20:29:50 69° 182° (S) 3,375 10.1 -10.3°
Drops below altitude 10° 20:49:08 10° 105° (ESE) 5,862 10.9 -13.3°
Enters shadow 20:49:14 10° 105° (ESE) 5,881 10.9 -13.3°
